Orangeburg, SC

1:06 AM EST on January 19, 2018 (GMT -0500)
Orangeburg Municipal

Weather History for KOGB - August, 2012

Change the Weather History Date:

Saturday, August 18, 2012

  Actual Average Record
Temperature  
Mean Temperature 80 °F 80 °F  
Max Temperature 89 °F 90 °F 105 °F (1954)
Min Temperature 71 °F 71 °F 53 °F (1979)
Degree Days  
Heating Degree Days 0 0  
Month to date heating degree days 0 0  
Since 1 June heating degree days 0 1  
Since 1 July heating degree days 0 0  
Cooling Degree Days 15 15  
Month to date cooling degree days 286 288  
Year to date cooling degree days 1732 1510  
Since 1 June cooling degree days 1184 1207  
Growing Degree Days 30 (Base 50)    
Moisture  
Dew Point 70 °F    
Average Humidity 83    
Maximum Humidity 93    
Minimum Humidity 52    
Precipitation  
Precipitation 0.00 in 0.17 in 1.56 in (1953)
Month to date precipitation 2.45 3.21  
Year to date precipitation 29.98 31.24  
Sea Level Pressure  
Sea Level Pressure 29.89 in    
Wind  
Wind Speed 2 mph (SW)    
Max Wind Speed 10 mph    
Max Gust Speed 14 mph    
Visibility 6 miles    
Events      
T = Trace of Precipitation, MM = Missing Value Source: NWS Daily Summary

Daily Weather History Graph

Daily Weather History Graph

Search for Another Location

Airport or City:

Trip Planner

Search our weather history database for the weather conditions in past years. The results will help you decide how hot, cold, wet, or windy it might be!

Date:

Astronomy

Aug. 18, 2012 Rise Set
Actual Time 6:48 AM EDT 8:05 PM EDT
Civil Twilight 6:22 AM EDT 8:31 PM EDT
Nautical Twilight 5:51 AM EDT 9:02 PM EDT
Astronomical Twilight 5:18 AM EDT 9:34 PM EDT
Moon 7:48 AM EDT (8/18) 8:29 PM EDT (8/18)
Length of Visible Light 14h 09m
Length of Day
13h 17m
New Moon, 1% of the Moon is Illuminated
Aug 18
New Moon
Aug 24
First Quarter
Aug 31
Full
Sep 8
Last Quarter
Sep 15
New

Hourly Weather History & Observations

Time (EDT) Temp. Heat Index Dew Point Humidity Pressure Visibility Wind Dir Wind Speed Gust Speed Precip Events Conditions
12:53 AM 73.0 °F - 70.0 °F 90% 29.90 in 8.0 mi Calm Calm - N/A   Clear
1:53 AM 73.0 °F - 70.0 °F 90% 29.87 in 7.0 mi SSW 3.5 mph - N/A   Clear
2:53 AM 72.0 °F - 69.1 °F 91% 29.86 in 6.0 mi Calm Calm - N/A   Clear
3:53 AM 72.0 °F - 69.1 °F 91% 29.86 in 6.0 mi Calm Calm - N/A   Clear
4:53 AM 72.0 °F - 69.1 °F 91% 29.86 in 6.0 mi Calm Calm - N/A   Clear
5:26 AM 71.6 °F - 69.8 °F 94% 29.87 in 5.0 mi SW 3.5 mph - N/A   Scattered Clouds
5:37 AM 71.6 °F - 69.8 °F 94% 29.87 in 5.0 mi WSW 3.5 mph - N/A   Mostly Cloudy
5:46 AM 71.6 °F - 69.8 °F 94% 29.87 in 5.0 mi Calm Calm - N/A   Scattered Clouds
5:53 AM 72.0 °F - 70.0 °F 93% 29.86 in 5.0 mi Calm Calm - N/A   Mostly Cloudy
6:44 AM 71.6 °F - 69.8 °F 94% 29.89 in 5.0 mi Calm Calm - N/A   Partly Cloudy
6:53 AM 71.1 °F - 69.1 °F 93% 29.88 in 3.0 mi Calm Calm - N/A   Partly Cloudy
7:27 AM 71.6 °F - 69.8 °F 94% 29.90 in 2.5 mi Calm Calm - N/A   Clear
7:37 AM 71.6 °F - 69.8 °F 94% 29.90 in 2.0 mi Calm Calm - N/A   Scattered Clouds
7:39 AM 71.6 °F - 69.8 °F 94% 29.90 in 1.5 mi Calm Calm - N/A   Scattered Clouds
7:42 AM 71.6 °F - 69.8 °F 94% 29.90 in 0.8 mi Calm Calm - N/A   Mist
7:53 AM 72.0 °F - 70.0 °F 93% 29.90 in 1.5 mi Calm Calm - N/A   Mostly Cloudy
8:05 AM 71.6 °F - 69.8 °F 94% 29.91 in 2.0 mi Calm Calm - N/A   Overcast
8:14 AM 71.6 °F - 69.8 °F 94% 29.91 in 1.5 mi Calm Calm - N/A   Overcast
8:21 AM 71.6 °F - 69.8 °F 94% 29.91 in 2.0 mi Calm Calm - N/A   Overcast
8:29 AM 73.4 °F - 71.6 °F 94% 29.91 in 1.8 mi Calm Calm - N/A   Overcast
8:39 AM 73.4 °F - 71.6 °F 94% 29.91 in 2.5 mi SSW 3.5 mph - N/A   Overcast
8:46 AM 73.4 °F - 71.6 °F 94% 29.91 in 3.0 mi Calm Calm - N/A   Overcast
8:53 AM 73.0 °F - 71.1 °F 93% 29.91 in 4.0 mi SSW 3.5 mph - N/A   Overcast
9:53 AM 75.0 °F - 71.1 °F 87% 29.91 in 5.0 mi Calm Calm - N/A   Overcast
10:01 AM 75.2 °F - 71.6 °F 89% 29.92 in 5.0 mi Calm Calm - N/A   Haze
10:38 AM 78.8 °F - 71.6 °F 78% 29.92 in 7.0 mi Calm Calm - N/A   Scattered Clouds
10:53 AM 80.1 °F 83.8 °F 72.0 °F 76% 29.91 in 7.0 mi Calm Calm - N/A   Partly Cloudy
11:37 AM 82.4 °F 87.2 °F 71.6 °F 70% 29.92 in 8.0 mi Calm Calm - N/A   Mostly Cloudy
11:45 AM 82.4 °F 88.2 °F 73.4 °F 74% 29.92 in 8.0 mi Calm Calm - N/A   Scattered Clouds
11:53 AM 82.0 °F 86.7 °F 72.0 °F 71% 29.91 in 8.0 mi Calm Calm - N/A   Partly Cloudy
12:53 PM 84.0 °F 89.0 °F 71.1 °F 65% 29.89 in 10.0 mi WSW 3.5 mph - N/A   Partly Cloudy
1:53 PM 86.0 °F 90.1 °F 69.1 °F 57% 29.89 in 10.0 mi SW 8.1 mph - N/A   Scattered Clouds
2:53 PM 88.0 °F 92.1 °F 69.1 °F 53% 29.86 in 10.0 mi West 4.6 mph - N/A   Partly Cloudy
3:53 PM 88.0 °F 91.4 °F 68.0 °F 51% 29.83 in 10.0 mi SSW 5.8 mph - N/A   Partly Cloudy
4:53 PM 89.1 °F 94.1 °F 70.0 °F 53% 29.82 in 10.0 mi SW 6.9 mph - N/A   Clear
5:53 PM 88.0 °F 93.8 °F 71.1 °F 57% 29.82 in 10.0 mi SSW 3.5 mph - N/A   Partly Cloudy
6:53 PM 84.9 °F 90.1 °F 71.1 °F 63% 29.83 in 10.0 mi SSW 4.6 mph - N/A   Mostly Cloudy
7:53 PM 82.0 °F 87.4 °F 73.0 °F 74% 29.85 in 10.0 mi West 10.4 mph - N/A   Mostly Cloudy
8:53 PM 80.1 °F 83.8 °F 72.0 °F 76% 29.86 in 10.0 mi Calm Calm - N/A   Mostly Cloudy
9:53 PM 78.1 °F - 72.0 °F 81% 29.89 in 10.0 mi East 3.5 mph - N/A   Mostly Cloudy
10:53 PM 75.9 °F - 69.1 °F 79% 29.90 in 10.0 mi Calm Calm - N/A   Clear
11:53 PM 75.0 °F - 70.0 °F 84% 29.90 in 10.0 mi Calm Calm - N/A   Clear